Location: G�rlitz
(51.1670°N, 15.0000°E)
Time: 19:30:33
(UTC+02:00)

DOVE 4 - Visible Passes

Search period start: 11 April 2026 00:00
Search period end: 21 April 2026 00:00
Orbit: 574 x 754 km, 97.7° (Epoch: 11 April)

Date Brightness Start Highest point End Pass type
(mag) Time Alt. Az. Time Alt. Az. Time Alt. Az.
11 Apr ? 21:25:15 10° N 21:29:57 39° WNW 21:34:34 10° SW visible
12 Apr ? 05:21:26 10° ENE 05:22:14 10° NE 05:23:02 10° NE visible
12 Apr ? 20:18:46 10° NNE 20:23:49 63° E 20:28:43 10° S visible
12 Apr ? 21:56:25 10° N 22:00:24 24° WNW 22:04:20 10° WSW visible
13 Apr ? 20:49:29 10° N 20:54:34 74° WNW 20:59:30 10° SSW visible
13 Apr ? 22:27:58 10° NNW 22:30:43 15° NW 22:33:27 10° W visible
14 Apr ? 21:20:25 10° N 21:25:10 42° WNW 21:29:48 10° SW visible
15 Apr ? 21:51:32 10° N 21:55:38 25° WNW 21:59:39 10° WSW visible
16 Apr ? 20:44:40 10° NNE 20:49:45 80° WNW 20:54:38 10° SSW visible
16 Apr ? 22:23:01 10° NNW 22:25:57 16° NW 22:28:50 10° W visible
17 Apr ? 21:15:34 10° N 21:20:21 45° WNW 21:25:00 10° SW visible
18 Apr ? 21:46:39 10° N 21:50:49 27° WNW 21:54:53 10° WSW visible
19 Apr ? 20:39:51 10° NNE 20:44:54 86° WNW 20:49:43 10° SSW visible
19 Apr ? 22:18:05 10° NNW 22:21:09 17° NW 22:24:10 10° W visible
20 Apr ? 21:10:42 10° N 21:15:31 49° WNW 21:20:08 10° SW visible
